www.pogodaiklimat.ru

Погода и климат >> Архив погоды >> Индонезия >> Горонтало


ПОГОДА в Горонтало

  • Прогноз погоды в Горонтало
  • Монитор погоды в Горонтало

АРХИВ ПОГОДЫ в Горонтало

Время (UTC), дата Ветер
(напр.,м/с)
 
Видим.   Явления Облачность Т
(С)
Тd
(С)
f
(%)
Тe
(С)
Тes
(С)
Комфортность P
(гПа)
Po
(гПа)
Тmin
(С)
Tmax
(С)
R
(мм)
R24
(мм)
S
(см)
09 12.05 штиль 0 8000 м 9/6 540 м
[Cu med, cong Ac trans Ci fib]
+28.0 +24.8 83 +40 +40 очень
душно
1008.3 1006.2 1
12 12.05 штиль 0 8000 м 8/6 300 м
[Cu med, cong Ac trans Ci fib]
+26.4 +26.0 98 +39 +39 очень
душно
1010.1 1008.0 +33.3 7
15 12.05 штиль 0 8000 м 8/6 300 м
[Cu med, cong Ac trans Ci fib]
+25.1 +24.9 99 +36 +36 очень
душно
1009.7 1007.5
18 12.05 штиль 0 7000 м 8/8 300 м
[Cu med, cong Ac trans Ci fib]
+24.8 +24.6 99 +35 +35 очень
душно
1008.5 1006.4
21 12.05 штиль 0 6000 м 8/8 150 м
[Cu med, cong Ac trans Ci fib]
+24.9 +24.7 99 +35 +35 очень
душно
1009.3 1007.2
00 13.05 З 1 10 км 6/5 450 м
[Cu med, cong Ac trans Ci fib]
+26.7 +24.9 90 +38 +41 очень
душно
1011.6 1009.2 +24.3 7
03 13.05 СВ 2 10 км осадки на расстоянии 8/5 540 м
[Cb cap Ac trans Ci fib]
+31.9 +25.2 68 +46 +53 опасность
перегрева
1009.7 1007.4
06 13.05 ЮВ 2 10 км осадки на расстоянии 8/5 540 м
[Cb cap Ac trans Ci fib]
+32.0 +24.3 64 +44 +50 опасность
перегрева
1006.9 1004.5
09 13.05 С 2 10 км гроза без осадков 8/5 540 м
[Cb cap Ac trans Ci sp]
+29.6 +25.0 76 +42 +43 опасность
перегрева
1007.7 1005.5
12 13.05 СЗ 1 8000 м 8/5 540 м
[Cu med, cong Ac trans Ci fib]
+25.9 +24.8 94 +37 +37 очень
душно
1009.4 1007.3 +33.4
15 13.05 штиль 0 8000 м 8/5 500 м
[Cu med, cong Ac trans Ci fib]
+25.6 +24.6 94 +36 +36 очень
душно
1010.3 1008.1
18 13.05 штиль 0 8000 м 8/5 500 м
[Cu med, cong Ac trans Ci fib]
+24.7 +24.6 99 +35 +35 очень
душно
1008.9 1006.6
21 13.05 штиль 0 8000 м 8/5 540 м
[Cu med, cong Ac trans Ci fib]
+24.4 +24.0 98 +34 +34 очень
душно
1008.9 1006.7
00 14.05 штиль 0 10 км 5/4 500 м
[Cu med, cong Ac trans Ci sp]
+27.8 +24.9 84 +40 +44 очень
душно
1011.1 1008.9 +23.9
03 14.05 ЮВ 5 10 км 6/5 450 м
[Cb cap Ac trans Ci sp]
+31.5 +24.7 67 +44 +49 опасность
перегрева
1007.5 1009.7
06 14.05 Ю 4 10 км 5/4 450 м
[Cb cap Ac trans Ci sp]
+32.1 +24.7 65 +45 +50 опасность
перегрева
1007.1 1005.0
09 14.05 Ю 2 10 км 5/4 540 м
[Cu med, cong Ac trans Ci fib]
+31.4 +23.8 64 +43 +43 опасность
перегрева
1006.8 1004.5
12 14.05 СЗ 1 10 км 5/4 540 м
[Cu med, cong Ac trans Ci fib]
+27.4 +25.0 87 +39 +39 очень
душно
1009.4 1007.1 +33.4
15 14.05 штиль 0 10 км 5/4 540 м
[Cu med, cong Ac trans Ci fib]
+26.1 +25.2 95 +38 +38 очень
душно
1010.3 1007.9
18 14.05 штиль 0 10 км 5/4 540 м
[Cu med, cong Ac trans Ci fib]
+24.8 +23.8 94 +34 +34 очень
душно
1008.7 1006.3
21 14.05 штиль 0 8000 м 8/5 360 м
[Cu med, cong Ac trans Ci fib]
+23.8 +23.3 97 +32 +32 очень
душно
1009.9 1007.5
00 15.05 В 3 10 км 6/4 500 м
[Cu med, cong Ac trans Ci fib]
+27.3 +25.1 88 +39 +42 очень
душно
1011.6 1009.4 +23.5
03 15.05 Ю 2 10 км 6/4 500 м
[Cu med, cong Ac trans Ci fib]
+31.9 +15.1 36 +34 +43 душно 1010.0 1007.8
06 15.05 ЮВ 3 10 км 6/4 500 м
[Cu med, cong Ac trans Ci fib]
+33.2 +24.2 59 +45 +52 опасность
перегрева
1007.6 1005.4
09 15.05 Ю 3 10 км 6/3 480 м
[Cu med, cong Ac As Ci sp]
+30.5 +24.2 69 +42 +43 опасность
перегрева
1007.6 1005.4
12 15.05 штиль 0 10 км 6/3 480 м
[Cu med, cong Ac As Ci sp]
+27.8 +25.2 86 +40 +40 очень
душно
1008.8 1006.7 +34.1
15 15.05 штиль 0 7000 м 8/4 480 м
[Cu med, cong Ac As Ci sp]
+26.9 +25.8 94 +40 +40 очень
душно
1009.9 1007.7
18 15.05 штиль 0 8000 м 8/4 450 м
[Sc Ac As Ci fib]
+26.4 +25.2 93 +38 +38 очень
душно
1008.3 1006.2
21 15.05 штиль 0 8000 м зарница 8/5 450 м
[Cb cap Ac As Ci sp]
+24.8 +24.7 99 +35 +35 очень
душно
1008.5 1006.3
00 16.05 ЮВ 2 8000 м 4/1 480 м
[Cu med, cong Ac trans Ci fib]
+28.0 +24.2 80 +39 +44 очень
душно
1010.1 1008.0 +24.3
03 16.05 Ю 1 10 км 6/4 540 м
[Cu med, cong Ac trans Ci fib]
+33.2 +24.4 60 +46 +57 опасность
перегрева
1009.2 1007.0
06 16.05 Ю 3 10 км 5/3 540 м
[Cu med, cong Ac trans Ci fib]
+33.0 +22.9 55 +43 +50 опасность
перегрева
1006.7 1004.5
09 16.05 В 3 10 км 6/4 500 м
[Cu med, cong Ac trans Ci fib]
+29.7 +25.0 76 +43 +43 опасность
перегрева
1006.8 1004.6
12 16.05 штиль 0 10 км 6/4 500 м
[Cu med, cong Ac trans Ci fib]
+27.4 +25.3 88 +40 +40 очень
душно
1008.8 1006.6 +33.8
15 16.05 штиль 0 10 км 6/4 500 м
[Cu med, cong Ac trans Ci fib]
+26.1 +25.6 97 +38 +38 очень
душно
1009.7 1007.6
18 16.05 штиль 0 10 км 6/4 500 м
[Cu med, cong Ac trans Ci fib]
+25.4 +24.7 96 +36 +36 очень
душно
1008.3 1006.1
21 16.05 штиль 0 10 км 6/4 500 м
[Cu med, cong Ac trans Ci fib]
+24.7 +24.3 98 +34 +34 очень
душно
1008.7 1006.5
00 17.05 ЮВ 1 10 км 6/4 540 м
[Cu med, cong Ac trans Ci fib]
+28.4 +23.4 74 +38 +42 очень
душно
1010.3 1008.2 +24.3
03 17.05 В 1 10 км 6/4 540 м
[Cu med, cong Ac trans Ci fib]
+32.1 +24.9 66 +46 +57 опасность
перегрева
1009.0 1006.8
06 17.05 Ю 3 10 км 6/4 540 м
[Cu med, cong Ac trans Ci fib]
+33.9 +22.5 51 +43 +49 опасность
перегрева
1006.2 1004.1
09 17.05 СЗ 1 10 км 6/6 480 м
[Cb cap Ac trans Ci fib]
+28.6 +22.1 68 +37 +38 очень
душно
1007.5 1005.3
12 17.05 штиль 0 7000 м 6/6 500 м
[Cu med, cong Ac trans Ci fib]
+26.2 +24.4 90 +37 +37 очень
душно
1008.7 1006.7 +24.3
15 17.05 штиль 0 7000 м 6/6 500 м
[Cu med, cong Ac trans Ci fib]
+25.3 +24.5 95 +35 +35 очень
душно
1009.9 1007.8
18 17.05 штиль 0 7000 м 6/6 480 м
[Cu Sc Ac trans Ci fib]
+24.0 +23.8 99 +33 +33 очень
душно
1009.0 1006.8
21 17.05 штиль 0 7000 м 8/6 300 м
[Cu Sc Ac trans Ci fib]
+23.9 +23.7 99 +32 +32 очень
душно
1009.4 1007.3
00 18.05 ЮВ 1 10 км 6/4 450 м
[Cu med, cong Ac trans Ci fib]
+27.4 +24.8 86 +39 +43 очень
душно
1011.1 1008.1 +23.7
03 18.05 ЮВ 2 10 км 6/4 540 м
[Cu med, cong Ac trans Ci fib]
+31.4 +25.8 72 +46 +56 опасность
перегрева
1009.8 1007.5
06 18.05 Ю 2 10 км осадки на расстоянии 8/5 540 м
[Cb cap Ac trans Ci fib]
+31.8 +25.1 68 +46 +51 опасность
перегрева
1007.1 1004.8
09 18.05 СЗ 2 9000 м {дождь} 9/6 450 м
[Cb cap Ac As Ci sp]
+27.4 +24.6 85 +39 +39 очень
душно
1008.5 1006.3 7
12 18.05 З 2 9000 м {дождь} 6/4 500 м
[Cu med, cong Ac As Ci sp]
+25.5 +24.1 92 +35 +35 очень
душно
1010.2 1008.0 +32.5 0.0
15 18.05 З 2 9000 м {гроза} 6/4 500 м
[Cu med, cong Ac As Ci sp]
+24.6 +24.4 99 +34 +34 очень
душно
1011.1 1008.9
18 18.05 штиль 0 9000 м 6/4 500 м
[Cu med, cong Ac As Ci sp]
+24.0 +23.9 99 +33 +33 очень
душно
1009.4 1007.2
21 18.05 штиль 0 7000 м зарница 6/5 480 м
[Cb cap Ac As Ci sp]
+23.4 +23.3 99 +33 +33 очень
душно
1009.4 1007.2
00 19.05 штиль 0 8000 м 8/5 540 м
[Cu med, cong Ac trans Ci fib]
+27.4 +23.9 81 +38 +41 очень
душно
1011.3 1009.1 +23.4
03 19.05 штиль 0 10 км 6/4 540 м
[Cu med, cong Ac trans Ci fib]
+29.8 +24.3 72 +42 +54 опасность
перегрева
1010.6 1008.4

 

Местоположение метеостанции Горонтало (Индонезия): широта 0.52 долгота 123.06 высота над уровнем моря 2 м.

В архиве по умолчанию представлена погода в Горонтало за последнюю неделю. Архивные данные за месяц целиком и за предыдущие месяцы, начиная с января 2011 года, Вы можете получить, выбрав интересующий диапазон дат из раскрывающегося списка и нажав кнопку "Ввод!".


*Определитесь, кто Вы:
робот инопланетянин человек

Внимание! Время в таблицах - всемирное. Для получения местного времени необходимо прибавить поправку, которая равна 8 ч.

Смотрите также архив погоды в соседних городах и на ближайших метеорологических станциях:

Погода в Лувуке (Индонезия) (161 км)
Погода в Менадо (Индонезия) (234 км)
Погода в Битунге (Индонезия) (257 км)
Погода в Толи-Толи (Индонезия) (257 км)
Погода в Посо (Индонезия) (334 км)
Погода в Палу (Индонезия) (394 км)
Погода на Санане (Индонезия) (436 км)
Погода в Масамбе (Индонезия) (455 км)
Погода в Тернате (Индонезия) (479 км)
Погода в Лабухе (Индонезия) (510 км)

Пояснения к столбцам:

Ветер - указаны скорость ветра в м/с - средняя за 10 мин, порывы в срок и между сроками (в фигурных скобках) и направление, откуда дует ветер: С - северный, СВ - северо-восточный, В - восточный, ЮВ - юго-восточный, Ю - южный, ЮЗ - юго-западный, З - западный, СЗ - северо-западный.
Видимость - горизонтальная дальность видимости в метрах или километрах. При видимости от 1 до 10 км при отсутствии осадков обычно наблюдается дымка, при ухудшении видимости до 1 км и менее - туман. В сухую погоду видимость может ухудшаться дымом, пылью или мглою.
Явления - указаны атмосферные явления, наблюдавшиеся в срок или в последний час перед сроком; фигурными скобками обозначены явления, наблюдавшиеся между сроками (за 1-3 часа до срока); квадратными скобками обозначены град или гололедные отложения с указанием их диаметра в мм.
Облачность - указаны через наклонную черту общая и нижняя облачность в баллах и высота нижней границы облаков в метрах; квадратными скобками обозначены формы облаков: Ci - перистые, Cs - перисто-слоистые, Cc - перисто-кучевые, Ac - высококучевые, As - высокослоистые, Sc - слоисто-кучевые, Ns - слоисто-дождевые, Cu - кучевые, Cb - кучево-дождевые. Подробнее классификацию облаков см. в Атласе облаков (PDF).
T - Температура воздуха - температура, измеренная на высоте 2 м над землей.
Td - Температура точки росы - температура, при понижении до которой содержащийся в воздухе водяной пар достигнет насыщения.
f - Относительная влажность воздуха - влажноcть воздуха, измеренная на высоте 2 м над землей.
Te - Эффективная температура - температура, которую ощущает одетый по сезону человек в тени. Характеристика душности погоды. При расчете учитывается влияние влажности воздуха и скорости ветра на теплоощущения человека.
Tes - Эффективная температура на солнце - температура, которую ощущает человек, с поправкой на солнечный нагрев. Характеристика знойности погоды. Зависит от высоты солнца над горизонтом, облачности и скорости ветра. Ночью, в пасмурную погоду, а также при ветре 12 м/с и более поправка равна нулю.
P - Атмосферное давление - приведенное к уровню моря атмосферное давление.
Po - Атмосферное давление - измеренное на уровне метеостанции атмосферное давление.
Tmin - Минимальная температура - минимум температуры воздуха на высоте 2 м над землей.
Tmax - Максимальная температура - максимум температуры воздуха на высоте 2 м над землей.
R - Количество осадков - Количество выпавших осадков за период времени, мм. При наведении курсора мыши на число - период времени, за который выпало указанное количество осадков.
R24 - Количество осадков - Количество выпавших осадков за 24 часа, мм.
S - Снежный покров - Высота снежного покрова, см. При наведении курсора мыши на число - состояние снежного покрова и степень покрытия местности в баллах.